GW2918 Weather Reports


time (UTC)temp
F
wind
direction
speed
knots
gust
knots
rain 1hr
in
rain 24hr
in
rain mn
in
humidity
%
barometer
mb
20260504044419 45 128 1.7 2.6 0.00 0.00 0.00 59 1012.4
20260504043419 45 238 1.7 3.5 0.00 0.00 0.00 58 1012.3
20260504042419 45 213 1.7 4.3 0.00 0.00 0.00 59 1012.1
20260504041418 45 173 0.9 1.7 0.00 0.00 0.00 59 1012.1
20260504040412 45 202 5.2 6.1 0.00 0.00 0.00 57 1012.3
20260504035411 45 193 0.0 3.5 0.00 0.00 0.00 57 1012.3
20260504034411 46 146 1.7 3.5 0.00 0.00 0.00 57 1012.0
20260504033406 46 111 1.7 5.2 0.00 0.00 0.00 56 1012.1
20260504032405 46 188 1.7 3.5 0.00 0.00 0.00 56 1012.3
20260504031405 46 150 1.7 2.6 0.00 0.00 0.00 56 1012.1
20260504030404 46 13 0.9 2.6 0.00 0.00 0.00 56 1012.4
20260504025403 45 113 1.7 2.6 0.00 0.00 0.00 56 1012.1
20260504024402 46 121 1.7 2.6 0.00 0.00 0.00 56 1012.3
20260504023401 46 150 0.0 1.7 0.00 0.00 0.00 55 1012.4
20260504022400 46 248 1.7 1.7 0.00 0.00 0.00 54 1012.3
20260504021359 46 58 0.9 2.6 0.00 0.00 0.00 55 1012.1
20260504020359 45 107 1.7 2.6 0.00 0.00 0.00 55 1012.4
20260504015357 46 80 1.7 2.6 0.00 0.00 0.00 55 1012.1
20260504014355 46 119 1.7 2.6 0.00 0.00 0.00 54 1012.5
20260504013350 47 134 1.7 2.6 0.00 0.00 0.00 53 1012.1
20260504012350 47 134 1.7 2.6 0.00 0.00 0.00 52 1012.0
20260504011350 47 38 0.0 2.6 0.00 0.00 0.00 53 1011.9
20260504010348 47 180 1.7 2.6 0.00 0.00 0.00 53 1011.8
20260504005347 47 115 0.9 1.7 0.00 0.00 0.00 53 1011.6
20260504004342 48 165 0.0 2.6 0.00 0.00 0.00 50 1011.7
20260504003341 48 111 1.7 1.7 0.00 0.00 0.00 49 1011.6
20260504002340 48 113 0.9 2.6 0.00 0.00 0.00 50 1011.5
20260504001340 49 254 0.9 3.5 0.00 0.00 0.00 51 1011.4
20260504000340 50 334 0.0 1.7 0.00 0.00 0.00 49 1011.4
20260503235335 50 156 1.7 5.2 0.00 0.00 0.00 46 1011.2
20260503234330 51 217 1.7 5.2 0.00 0.00 0.00 46 1011.3
20260503233329 52 256 6.1 7.0 0.00 0.00 0.00 44 1011.2
20260503232329 52 217 7.0 8.7 0.00 0.00 0.00 43 1011.1
20260503231329 52 233 1.7 3.5 0.00 0.00 0.00 45 1011.1
20260503230328 53 235 1.7 5.2 0.00 0.00 0.00 44 1011.3
20260503225328 54 347 3.5 6.1 0.00 0.00 0.00 42 1011.0
20260503224327 53 60 3.5 4.3 0.00 0.00 0.00 45 1011.0
20260503223322 52 248 2.6 3.5 0.00 0.00 0.00 47 1011.1
20260503222322 53 331 1.7 4.3 0.00 0.00 0.00 47 1011.1
20260503221319 53 19 3.5 3.5 0.00 0.00 0.00 45 1011.2
20260503220317 54 273 4.3 6.1 0.00 0.00 0.00 44 1011.0
20260503215317 53 292 3.5 3.5 0.00 0.00 0.00 45 1011.2
20260503214312 52 257 4.3 6.1 0.00 0.00 0.00 45 1011.2
20260503213307 52 355 0.9 5.2 0.00 0.00 0.00 46 1011.1
20260503212301 53 0 1.7 4.3 0.00 0.00 0.00 46 1011.1
20260503211301 53 279 3.5 7.8 0.00 0.00 0.00 46 1011.0
20260503210259 53 241 1.7 7.0 0.00 0.00 0.00 46 1011.0
20260503205256 52 311 5.2 7.0 0.00 0.00 0.00 45 1010.8
20260503204256 53 231 1.7 11.3 0.00 0.00 0.00 46 1010.9
20260503203251 52 279 6.1 7.8 0.00 0.00 0.00 45 1011.1
20260503202246 52 312 1.7 6.1 0.00 0.00 0.00 44 1011.1
20260503201247 52 322 0.0 9.6 0.00 0.00 0.00 44 1011.1
20260503200245 53 15 1.7 4.3 0.00 0.00 0.00 45 1011.0
20260503195245 53 138 1.7 4.3 0.00 0.00 0.00 44 1011.5
20260503194244 53 329 5.2 12.2 0.00 0.00 0.00 42 1011.3
20260503193243 53 338 0.0 10.4 0.00 0.00 0.00 44 1011.5
20260503192239 52 345 3.5 10.4 0.00 0.00 0.00 42 1011.7
20260503191234 55 345 1.7 4.3 0.00 0.00 0.00 43 1011.4
20260503190233 55 234 1.7 11.3 0.00 0.00 0.00 46 1011.7
20260503185232 52 236 4.3 7.8 0.00 0.00 0.00 40 1011.8
20260503184229 52 167 1.7 15.6 0.00 0.00 0.00 43 1011.7
20260503183228 52 320 3.5 10.4 0.00 0.00 0.00 41 1011.9
20260503182225 52 284 5.2 9.6 0.00 0.00 0.00 39 1011.8
20260503181224 53 162 0.9 8.7 0.00 0.00 0.00 42 1012.1
20260503180219 53 103 0.9 13.0 0.00 0.00 0.00 40 1012.0
20260503175219 52 263 4.3 11.3 0.00 0.00 0.00 41 1012.3
20260503174218 51 258 3.5 7.0 0.00 0.00 0.00 42 1012.4
20260503173215 49 271 3.5 10.4 0.00 0.00 0.00 44 1012.6
20260503172215 50 0 2.6 9.6 0.00 0.00 0.00 43 1012.6
20260503171214 50 298 4.3 6.1 0.00 0.00 0.00 45 1012.7
20260503170214 49 313 4.3 9.6 0.00 0.00 0.00 45 1012.8
20260503160159 46 352 4.3 11.3 0.00 0.00 0.00 49 1013.2
20260503150142 43 341 6.1 9.6 0.00 0.00 0.00 50 1013.7
20260503140135 42 345 1.7 10.4 0.00 0.00 0.00 55 1013.6
20260503131128 40 0 4.3 9.6 0.00 0.00 0.00 58 1013.7
20260503130123 39 351 2.6 8.7 0.00 0.00 0.00 57 1013.8
20260503120111 38 324 1.7 5.2 0.00 0.00 0.00 74 1013.6
20260503081024 32 29 3.5 4.3 0.00 0.00 0.00 86 1012.5
20260503072014 33 15 3.5 3.5 0.00 0.00 0.00 83 1012.6
20260503071014 34 38 5.2 5.2 0.00 0.00 0.00 82 1012.6
20260503054951 35 35 2.6 3.5 0.00 0.00 0.00 83 1012.7
20260503053950 35 31 3.5 3.5 0.00 0.00 0.00 82 1012.6
20260503052950 35 39 2.6 4.3 0.00 0.00 0.00 81 1013.0
20260503051950 36 38 3.5 4.3 0.00 0.00 0.00 81 1013.3
20260503050949 36 8 3.5 7.0 0.00 0.00 0.00 78 1013.0
20260503045948 37 40 2.6 7.0 0.00 0.00 0.00 78 1013.2
20260503044948 37 31 3.5 7.0 0.00 0.00 0.00 78 1013.2